User: anonymous   Login
Location: Sperry Observatory
(40.6664°N, 74.3236°W)
Time: 13:00:46
(UTC-04:00)
Language:

JAS-2 - Orbit

View from above orbital plane
View from above orbital plane
View from above satellite
View from above satellite

Ground track
Ground track

The orbit data is extracted from the following two-line orbital elements,

1 24278U 96046B   15244.90835080 -.00000036  00000-0  98331-6 0  9997
2 24278  98.5491 203.3578 0349548 231.8262 192.8240 13.53055692940408
Epoch (UTC): 01 September 2015 21:48:01
Eccentricity: 0.0349548
inclination: 98.5491°
perigee height: 801 km
apogee height: 1321 km
right ascension of ascending node: 203.3578°
argument of perigee: 231.8262°
revolutions per day: 13.53055692
mean anomaly at epoch: 192.8240°
orbit number at epoch: 94040

The dashed part of the orbit path shows where the satellite is in the earth's shadow,  

DLR